EA4BPO Weather Reports


Display with metric or nautical units.
time (UTC)temp
F
wind
direction
speed
MPH
gust
MPH
rain 1hr
in
rain 24hr
in
rain mn
in
humidity
%
barometer
mb
20260509064504 54 196 4.0 9.0 0.00 0.05 0.00 87 1009.9
20260509064004 54 196 4.0 6.0 0.00 0.05 0.00 86 1010.0
20260509063504 54 193 3.0 6.0 0.00 0.05 0.00 86 1009.8
20260509063004 54 176 4.0 8.0 0.00 0.05 0.00 86 1009.6
20260509062504 54 169 4.0 8.0 0.00 0.05 0.00 86 1009.4
20260509062004 54 162 5.0 10.0 0.00 0.05 0.00 86 1009.6
20260509061504 54 145 4.0 10.0 0.00 0.05 0.00 86 1009.5
20260509061004 54 150 4.0 9.0 0.00 0.05 0.00 86 1009.2
20260509060504 54 173 6.0 14.0 0.00 0.05 0.00 86 1009.5
20260509060004 54 175 7.0 14.0 0.00 0.05 0.00 85 1009.6
20260509055504 54 176 6.0 11.0 0.00 0.05 0.00 86 1009.7
20260509055004 54 182 7.0 16.0 0.00 0.05 0.00 86 1009.7
20260509054504 54 177 6.0 16.0 0.00 0.05 0.00 86 1009.9
20260509054004 54 160 5.0 9.0 0.00 0.05 0.00 86 1009.6
20260509053504 54 160 5.0 11.0 0.00 0.05 0.00 86 1009.6
20260509053004 54 167 5.0 11.0 0.00 0.05 0.00 86 1009.6
20260509052504 54 169 5.0 10.0 0.00 0.05 0.00 86 1009.6
20260509052025 54 165 5.0 10.0 0.00 0.05 0.00 86 1009.6
20260509051504 54 156 5.0 13.0 0.00 0.05 0.00 86 1009.5
20260509051025 54 152 5.0 13.0 0.00 0.05 0.00 86 1009.4
20260509050504 54 150 5.0 11.0 0.00 0.05 0.00 87 1009.1
20260509050025 54 149 6.0 10.0 0.00 0.05 0.00 87 1008.7
20260509045504 54 134 5.0 10.0 0.00 0.05 0.00 87 1008.9
20260509045004 54 129 5.0 10.0 0.00 0.05 0.00 87 1008.7
20260509044504 54 136 5.0 9.0 0.00 0.05 0.00 87 1008.7
20260509044004 54 129 4.0 10.0 0.00 0.05 0.00 86 1008.6
20260509043525 54 127 3.0 10.0 0.00 0.05 0.00 86 1008.4
20260509043004 54 133 3.0 8.0 0.00 0.05 0.00 87 1008.7
20260509042504 54 135 3.0 8.0 0.00 0.05 0.00 87 1008.5
20260509042004 54 134 2.0 8.0 0.00 0.05 0.00 87 1008.7
20260509041504 54 120 3.0 8.0 0.00 0.05 0.00 87 1008.7
20260509041004 54 98 4.0 10.0 0.00 0.05 0.00 87 1008.5
20260509040504 54 103 5.0 10.0 0.00 0.05 0.00 87 1008.3
20260509040004 54 105 4.0 10.0 0.00 0.05 0.00 87 1008.5
20260509035504 54 85 2.0 7.0 0.00 0.05 0.00 87 1008.7
20260509035004 54 91 3.0 6.0 0.00 0.05 0.00 87 1008.7
20260509034504 54 99 3.0 6.0 0.00 0.05 0.00 87 1008.8
20260509034004 54 114 3.0 6.0 0.00 0.05 0.00 86 1009.0
20260509033504 54 129 3.0 6.0 0.00 0.05 0.00 86 1009.5
20260509033004 54 147 3.0 6.0 0.00 0.05 0.00 85 1009.4
20260509032504 55 171 4.0 9.0 0.00 0.05 0.00 85 1009.5
20260509032025 55 171 5.0 11.0 0.00 0.05 0.00 85 1009.5
20260509031525 55 160 5.0 11.0 0.00 0.05 0.00 84 1009.6
20260509031004 55 150 4.0 9.0 0.00 0.05 0.00 84 1009.9
20260509030504 55 148 4.0 9.0 0.00 0.05 0.00 84 1009.6
20260509030004 55 158 4.0 9.0 0.00 0.05 0.00 84 1009.5
20260509025504 55 159 4.0 9.0 0.00 0.05 0.00 84 1009.7
20260509025004 55 153 4.0 9.0 0.00 0.05 0.00 84 1009.8
20260509024504 55 166 5.0 9.0 0.00 0.05 0.00 84 1009.6
20260509024004 55 161 5.0 9.0 0.00 0.05 0.00 84 1009.6
20260509023504 55 146 5.0 10.0 0.00 0.05 0.00 84 1009.6
20260509023025 55 144 6.0 11.0 0.00 0.05 0.00 84 1009.4
20260509022504 55 144 5.0 11.0 0.00 0.05 0.00 85 1009.5
20260509022004 55 153 4.0 10.0 0.00 0.05 0.00 85 1009.7
20260509021504 54 148 4.0 8.0 0.00 0.05 0.00 86 1009.6
20260509021004 54 145 3.0 8.0 0.00 0.05 0.00 86 1009.6
20260509020525 54 145 3.0 6.0 0.00 0.05 0.00 86 1009.5
20260509020004 54 137 4.0 8.0 0.00 0.05 0.00 86 1009.6
20260509015525 54 134 4.0 8.0 0.00 0.05 0.00 86 1009.6
20260509015004 54 144 4.0 9.0 0.00 0.05 0.00 86 1009.7
20260509014504 55 148 4.0 9.0 0.00 0.05 0.00 86 1010.1
20260509014004 55 147 5.0 9.0 0.00 0.05 0.00 86 1009.9
20260509013504 55 145 4.0 9.0 0.00 0.05 0.00 86 1009.7
20260509013025 55 139 4.0 9.0 0.00 0.05 0.00 86 1009.7
20260509012504 55 141 4.0 9.0 0.00 0.05 0.00 86 1009.9
20260509012004 55 146 3.0 8.0 0.00 0.05 0.00 86 1009.7
20260509011504 55 143 3.0 8.0 0.00 0.05 0.00 86 1010.1
20260509011004 55 148 4.0 8.0 0.00 0.05 0.00 86 1009.8
20260509010504 55 146 3.0 9.0 0.00 0.05 0.00 86 1009.8
20260509010004 55 139 3.0 9.0 0.00 0.05 0.00 85 1010.0
20260509005504 55 133 3.0 10.0 0.00 0.05 0.00 85 1010.1
20260509005004 55 127 3.0 10.0 0.00 0.05 0.00 85 1010.2
20260509004525 55 114 2.0 8.0 0.00 0.05 0.00 85 1009.9
20260509004004 55 104 2.0 8.0 0.00 0.05 0.00 85 1010.1
20260509003504 54 88 3.0 8.0 0.00 0.05 0.00 86 1010.1
20260509003004 54 82 3.0 8.0 0.00 0.05 0.00 86 1010.1
20260509002504 54 85 3.0 8.0 0.00 0.05 0.00 86 1010.3
20260509002004 54 72 3.0 8.0 0.00 0.05 0.00 87 1010.0
20260509001504 54 60 3.0 7.0 0.00 0.05 0.00 87 1010.1
20260509001004 54 61 3.0 7.0 0.00 0.05 0.00 88 1010.1
20260509000504 54 63 3.0 6.0 0.00 0.05 0.00 88 1010.3
20260509000004 54 57 3.0 8.0 0.00 0.05 0.00 87 1010.2
20260508235525 54 62 3.0 8.0 0.00 0.05 0.00 87 1010.4
20260508235004 54 56 4.0 8.0 0.00 0.05 0.00 87 1010.3
20260508234525 54 54 4.0 8.0 0.00 0.05 0.00 86 1010.3
20260508234004 54 58 4.0 8.0 0.00 0.05 0.00 86 1010.3
20260508233504 54 45 4.0 8.0 0.00 0.05 0.00 86 1010.2
20260508233004 54 49 4.0 8.0 0.00 0.05 0.00 85 1010.3
20260508232504 55 62 4.0 8.0 0.00 0.05 0.00 85 1010.3
20260508232004 55 55 3.0 8.0 0.00 0.05 0.00 84 1010.2
20260508231525 55 49 3.0 8.0 0.00 0.05 0.00 84 1010.2
20260508231003 55 50 4.0 8.0 0.00 0.05 0.00 84 1010.2
20260508230504 55 46 4.0 8.0 0.00 0.05 0.00 84 1010.3
20260508230004 55 48 4.0 9.0 0.00 0.05 0.00 83 1010.3
20260508225504 55 51 5.0 11.0 0.00 0.05 0.00 83 1010.4
20260508225003 56 46 5.0 11.0 0.00 0.05 0.00 82 1010.3
20260508224503 56 43 4.0 9.0 0.00 0.05 0.00 82 1010.4
20260508224004 56 37 3.0 7.0 0.00 0.05 0.00 82 1010.3
20260508223504 56 40 3.0 7.0 0.00 0.05 0.00 82 1010.3
20260508223004 56 47 3.0 8.0 0.00 0.05 0.00 82 1010.5
20260508222504 56 55 3.0 8.0 0.00 0.05 0.00 82 1010.5
20260508222004 56 57 4.0 7.0 0.00 0.05 0.00 82 1010.3
20260508221504 56 49 4.0 9.0 0.00 0.05 0.00 82 1010.4
20260508221025 55 44 5.0 9.0 0.00 0.05 0.00 82 1010.6
20260508220504 56 43 4.0 9.0 0.00 0.05 0.00 82 1010.5
20260508220004 56 42 3.0 9.0 0.00 0.05 0.00 82 1010.6
20260508215504 56 39 3.0 8.0 0.00 0.05 0.05 81 1010.6
20260508215003 56 44 4.0 8.0 0.00 0.05 0.05 80 1010.6
20260508214504 56 48 3.0 7.0 0.00 0.05 0.05 79 1010.5
20260508214003 56 48 3.0 7.0 0.00 0.05 0.05 78 1010.4
20260508213504 57 51 3.0 7.0 0.00 0.05 0.05 77 1010.6
20260508213004 57 54 3.0 7.0 0.00 0.05 0.05 75 1010.6
20260508212525 57 53 3.0 8.0 0.00 0.05 0.05 74 1010.7
20260508212004 57 49 3.0 8.0 0.00 0.05 0.05 73 1010.6
20260508211504 57 47 3.0 7.0 0.00 0.05 0.05 73 1010.4
20260508211025 57 51 3.0 7.0 0.00 0.05 0.05 72 1010.7
20260508210503 57 53 4.0 7.0 0.00 0.05 0.05 72 1010.4
20260508210024 57 59 3.0 7.0 0.00 0.05 0.05 72 1010.5
20260508205503 58 62 3.0 7.0 0.00 0.05 0.05 72 1010.3
20260508205004 58 53 3.0 6.0 0.00 0.05 0.05 72 1010.6
20260508204525 58 44 2.0 4.0 0.00 0.05 0.05 72 1010.4
20260508204004 58 35 1.0 4.0 0.00 0.05 0.05 72 1010.2
20260508203504 58 37 1.0 3.0 0.00 0.05 0.05 72 1010.2
20260508203004 58 47 2.0 3.0 0.00 0.05 0.05 73 1010.3
20260508202503 58 47 2.0 6.0 0.00 0.05 0.05 72 1010.2
20260508202003 58 49 2.0 7.0 0.00 0.05 0.05 72 1010.3
20260508201503 58 53 3.0 7.0 0.00 0.05 0.05 72 1010.2
20260508201004 58 54 3.0 7.0 0.00 0.05 0.05 72 1010.0
20260508200504 58 51 3.0 7.0 0.00 0.05 0.05 73 1010.0
20260508200003 58 48 3.0 7.0 0.00 0.05 0.05 73 1010.2
20260508195503 58 50 3.0 7.0 0.00 0.05 0.05 73 1010.2
20260508195003 59 54 3.0 7.0 0.00 0.05 0.05 72 1010.1
20260508194503 59 51 4.0 8.0 0.00 0.05 0.05 72 1009.9
20260508194004 59 49 3.0 8.0 0.00 0.05 0.05 71 1009.9
20260508193503 59 49 2.0 6.0 0.00 0.05 0.05 70 1010.0
20260508193004 59 47 2.0 6.0 0.00 0.05 0.05 69 1009.7
20260508192504 60 55 3.0 6.0 0.00 0.05 0.05 68 1009.9
20260508192003 60 54 3.0 7.0 0.00 0.05 0.05 67 1009.8
20260508191503 60 48 3.0 7.0 0.00 0.05 0.05 66 1009.8
20260508191024 60 53 3.0 6.0 0.00 0.05 0.05 66 1009.7
20260508190524 60 55 2.0 6.0 0.00 0.05 0.05 66 1009.8
20260508190004 60 47 2.0 4.0 0.00 0.05 0.05 66 1009.7
20260508185503 61 55 2.0 6.0 0.00 0.05 0.05 66 1009.7
20260508185004 61 58 3.0 6.0 0.00 0.05 0.05 65 1009.8
20260508184504 61 54 3.0 7.0 0.00 0.05 0.05 65 1009.5
20260508184003 61 59 3.0 8.0 0.00 0.05 0.05 64 1009.5
20260508183503 62 63 3.0 8.0 0.00 0.05 0.05 62 1009.1
20260508183003 62 56 3.0 7.0 0.00 0.05 0.05 62 1009.1
20260508182503 62 57 2.0 7.0 0.00 0.05 0.05 62 1009.4
20260508182003 63 69 2.0 7.0 0.00 0.05 0.05 61 1009.4
20260508181504 63 78 1.0 4.0 0.00 0.05 0.05 60 1009.4
20260508181003 64 55 1.0 4.0 0.00 0.05 0.05 59 1009.2
20260508180503 64 64 1.0 3.0 0.00 0.05 0.05 55 1009.4
20260508180003 64 99 1.0 3.0 0.00 0.05 0.05 55 1009.2
20260508175503 64 109 2.0 6.0 0.00 0.05 0.05 55 1009.4
20260508175003 64 106 2.0 6.0 0.00 0.05 0.05 56 1009.4
20260508174525 64 133 1.0 4.0 0.00 0.05 0.05 56 1009.2
20260508174003 65 179 1.0 3.0 0.00 0.05 0.05 53 1009.4
20260508173503 65 89 1.0 4.0 0.00 0.05 0.05 54 1009.2
20260508173025 64 164 3.0 9.0 0.00 0.05 0.05 55 1009.2
20260508172503 64 202 3.0 9.0 0.00 0.05 0.05 56 1009.5
20260508172024 64 257 1.0 7.0 0.00 0.05 0.05 54 1009.5
20260508171503 64 222 2.0 7.0 0.00 0.05 0.05 55 1009.2
20260508171003 63 218 3.0 9.0 0.00 0.05 0.05 57 1009.2
20260508170503 63 242 4.0 9.0 0.00 0.05 0.05 56 1009.7
20260508170004 63 254 4.0 8.0 0.00 0.05 0.05 56 1009.4
20260508165503 65 215 3.0 9.0 0.00 0.05 0.05 55 1009.5
20260508165004 65 190 3.0 9.0 0.00 0.05 0.05 53 1009.1
20260508164504 66 200 2.0 6.0 0.00 0.05 0.05 54 1009.1
20260508164024 65 204 2.0 7.0 0.00 0.05 0.05 55 1009.5
20260508163503 65 224 2.0 7.0 0.00 0.05 0.05 54 1009.5
20260508163003 65 289 1.0 4.0 0.00 0.05 0.05 54 1009.5
20260508162503 66 183 1.0 3.0 0.00 0.05 0.05 55 1009.7
20260508162003 65 240 2.0 7.0 0.00 0.05 0.05 56 1009.5
20260508161504 64 287 2.0 7.0 0.00 0.05 0.05 58 1009.4
20260508161024 63 240 2.0 7.0 0.00 0.05 0.05 60 1009.5
20260508160503 63 198 2.0 7.0 0.00 0.05 0.05 61 1009.6
20260508160003 62 233 2.0 6.0 0.00 0.05 0.05 62 1009.6
20260508155503 61 300 3.0 7.0 0.00 0.05 0.05 64 1009.4
20260508155003 61 329 3.0 7.0 0.00 0.05 0.05 66 1009.5
20260508154503 62 300 2.0 10.0 0.00 0.05 0.05 65 1009.5
20260508154003 62 313 3.0 11.0 0.00 0.05 0.05 65 1009.5
20260508153503 61 325 4.0 11.0 0.00 0.05 0.05 67 1009.5
20260508153024 60 283 4.0 11.0 0.00 0.05 0.05 68 1009.5
20260508152503 61 273 5.0 11.0 0.00 0.05 0.05 69 1009.7
20260508152003 61 272 7.0 13.0 0.00 0.05 0.05 69 1009.7
20260508151503 61 261 8.0 13.0 0.00 0.05 0.05 67 1009.6
20260508151003 62 220 6.0 13.0 0.00 0.05 0.05 62 1009.6
20260508150524 63 197 6.0 13.0 0.00 0.05 0.05 56 1009.7
20260508150004 62 212 7.0 16.0 0.00 0.05 0.05 59 1009.6
20260508145524 62 207 7.0 16.0 0.00 0.05 0.05 59 1009.8
20260508145003 62 198 8.0 15.0 0.00 0.05 0.05 61 1009.8
20260508144503 61 190 8.0 14.0 0.00 0.05 0.05 61 1010.0
20260508144003 60 178 6.0 13.0 0.00 0.05 0.05 64 1010.0
20260508143503 60 170 5.0 11.0 0.00 0.05 0.05 68 1009.9
20260508143004 60 170 5.0 9.0 0.00 0.05 0.05 70 1009.9
20260508142524 60 188 5.0 9.0 0.00 0.05 0.05 70 1009.8
20260508142003 60 182 5.0 9.0 0.00 0.05 0.05 69 1010.0
20260508141524 61 158 6.0 13.0 0.00 0.05 0.05 68 1010.1
20260508141024 60 164 6.0 13.0 0.00 0.05 0.05 68 1010.1
20260508140504 60 176 5.0 10.0 0.00 0.05 0.05 71 1010.2
20260508140004 60 172 4.0 10.0 0.00 0.05 0.05 69 1010.1
20260508135503 61 161 2.0 8.0 0.00 0.05 0.05 66 1010.2
20260508135003 62 164 3.0 8.0 0.00 0.05 0.05 69 1010.1
20260508134503 60 144 3.0 8.0 0.00 0.05 0.05 71 1010.4
20260508134024 59 108 3.0 7.0 0.00 0.05 0.05 72 1010.2
20260508133503 59 100 2.0 7.0 0.00 0.05 0.05 73 1010.3
20260508133003 60 87 1.0 4.0 0.00 0.05 0.05 73 1010.4
20260508132503 60 29 1.0 3.0 0.00 0.05 0.05 72 1010.4
20260508132003 59 34 1.0 3.0 0.00 0.41 0.05 75 1010.3
20260508131503 58 87 1.0 3.0 0.00 0.41 0.05 75 1010.2
20260508131024 59 95 1.0 3.0 0.00 0.41 0.05 74 1010.4
20260508130524 58 90 2.0 8.0 0.00 0.41 0.05 74 1010.4
20260508130003 57 71 3.0 8.0 0.00 0.42 0.05 78 1010.6
20260508125503 57 44 2.0 7.0 0.00 0.43 0.05 82 1010.3
20260508125003 57 51 3.0 9.0 0.00 0.46 0.05 84 1010.3
20260508124503 55 71 4.0 9.0 0.00 0.48 0.05 86 1010.5
20260508124024 55 80 5.0 9.0 0.00 0.50 0.05 87 1010.6
20260508123503 55 84 4.0 9.0 0.00 0.50 0.05 86 1011.1
20260508123003 55 91 3.0 7.0 0.00 0.51 0.05 83 1011.0
20260508122524 55 86 2.0 6.0 0.00 0.52 0.05 82 1011.2
20260508122003 55 56 1.0 3.0 0.00 0.53 0.05 81 1011.2
20260508121524 56 12 1.0 3.0 0.00 0.53 0.05 81 1011.1
20260508121003 56 337 1.0 4.0 0.00 0.53 0.05 81 1011.1
20260508120503 55 360 2.0 4.0 0.00 0.53 0.05 81 1011.1
20260508120003 55 24 2.0 4.0 0.00 0.53 0.05 81 1011.2
20260508115503 55 30 1.0 3.0 0.00 0.53 0.05 81 1011.3
20260508115003 54 350 1.0 2.0 0.01 0.53 0.05 83 1011.2
20260508114503 54 347 1.0 3.0 0.01 0.53 0.05 85 1011.5
20260508114003 54 5 1.0 3.0 0.01 0.53 0.05 86 1011.3
20260508113503 53 9 1.0 3.0 0.01 0.53 0.05 87 1011.4
20260508113024 53 353 1.0 4.0 0.01 0.53 0.05 87 1011.3
20260508112503 53 9 2.0 6.0 0.01 0.53 0.05 88 1011.2
20260508112024 53 13 2.0 6.0 0.01 0.53 0.05 89 1011.2
20260508111503 53 13 2.0 4.0 0.02 0.53 0.05 89 1011.5
20260508111024 53 21 2.0 3.0 0.05 0.53 0.05 89 1011.5
20260508110503 53 48 2.0 3.0 0.05 0.53 0.05 89 1011.4
20260508110003 52 50 2.0 3.0 0.05 0.53 0.05 89 1011.5
20260508105503 52 356 2.0 3.0 0.05 0.53 0.05 89 1011.7
20260508105003 52 3 1.0 3.0 0.04 0.52 0.04 89 1011.5
20260508104503 52 44 1.0 2.0 0.04 0.52 0.04 88 1011.8
20260508104024 52 355 1.0 2.0 0.04 0.52 0.04 88 1011.6
20260508103503 52 313 0.0 1.0 0.04 0.52 0.04 87 1011.9
20260508103003 53 96 0.0 2.0 0.04 0.52 0.04 87 1011.8
20260508102503 53 81 1.0 2.0 0.04 0.52 0.04 86 1011.8
20260508102003 53 148 1.0 2.0 0.04 0.52 0.04 85 1011.7
20260508101503 53 193 2.0 4.0 0.03 0.51 0.03 84 1011.7
20260508101003 53 203 3.0 6.0 0.00 0.48 0.00 83 1011.9
20260508100503 53 188 2.0 6.0 0.00 0.48 0.00 82 1011.9
20260508100003 53 156 1.0 3.0 0.00 0.48 0.00 81 1011.8
20260508095503 54 136 1.0 3.0 0.00 0.48 0.00 82 1011.5
20260508095003 54 113 1.0 3.0 0.00 0.48 0.00 81 1011.2
20260508094503 54 89 1.0 3.0 0.00 0.48 0.00 80 1011.4
20260508094003 53 109 1.0 4.0 0.00 0.48 0.00 81 1011.6
20260508093503 53 101 2.0 4.0 0.00 0.48 0.00 81 1011.5
20260508093024 53 77 2.0 6.0 0.00 0.48 0.00 81 1011.3
20260508092503 53 65 1.0 6.0 0.00 0.48 0.00 81 1011.6
20260508092003 53 44 1.0 6.0 0.00 0.48 0.00 81 1011.3
20260508091503 54 37 1.0 6.0 0.00 0.48 0.00 81 1011.5
20260508091024 54 23 1.0 3.0 0.00 0.48 0.00 80 1011.5
20260508090503 54 14 1.0 3.0 0.00 0.48 0.00 81 1011.4
20260508090003 53 66 2.0 4.0 0.00 0.48 0.00 83 1011.3
20260508085503 52 73 2.0 8.0 0.00 0.48 0.00 84 1011.4
20260508085003 51 128 2.0 10.0 0.00 0.48 0.00 84 1011.4
20260508084503 51 151 2.0 10.0 0.00 0.48 0.00 84 1011.7
20260508084003 51 83 1.0 4.0 0.00 0.48 0.00 85 1011.6
20260508083503 51 82 2.0 8.0 0.00 0.48 0.00 85 1011.5
20260508083003 51 87 3.0 8.0 0.00 0.48 0.00 86 1011.3
20260508082503 51 80 3.0 8.0 0.00 0.48 0.00 86 1011.3
20260508082003 51 57 4.0 8.0 0.00 0.48 0.00 86 1010.8
20260508081504 50 56 4.0 8.0 0.00 0.48 0.00 86 1010.6
20260508081003 51 62 3.0 7.0 0.00 0.48 0.00 86 1011.3
20260508080503 51 57 3.0 7.0 0.00 0.48 0.00 86 1011.3
20260508080003 50 52 4.0 8.0 0.00 0.48 0.00 87 1011.1
20260508075503 50 56 3.0 8.0 0.00 0.48 0.00 88 1011.2
20260508075003 49 63 3.0 6.0 0.00 0.48 0.00 88 1011.1
20260508074501 49 56 3.0 6.0 0.00 0.48 0.00 88 1011.3
20260508074001 49 49 2.0 6.0 0.00 0.48 0.00 88 1011.2